SCP
0 0 -0 -0 -0 -0 -0 -0 -0 -0 -0 -0 -0 -0 -0 0 0 -0 -0 -0 -0 -0 -0 -0 -0 -0 -0 -0 -0 -0 -0 -0 -0 -0 -0 -0 -0 -0 -0 -0 0 0 -0
0 0 -0 -0 -0 -0 -0 -0 -0 -0 -0 -0 -0 -0 -0 -0 0 -0 -0 -0 -0 -0 -0 -0 -0 -0 -0 -0 -0 -0 -0 -0 0 -0 -0 -0 -0 -0 -0 -0 0 0 -0
0 0 0 -0 -0 -0 -0 -0 -0 -0 -0 -0 -0 -0 -0 -0 0 0 -0 0 -0 -0 -0 -0 -0 -0 -0 -0 -0 -0 -0 -0 0 -0 0 -0 -0 -0 -0 0 0 0 -0
0 0 0 -0 -0 -0 -0 -0 0 0 0 -0 -0 -0 -0 -0 -0 0 0 0 -0 -0 -0 -0 -0 -0 -0 -0 -0 -0 -0 -0 -0 -0 -0 -0 0 -0 0 0 0 0 0
0 0 0 -0 -0 -0 -0 -0 -0 0 0 -0 -0 -0 -0 -0 -0 -0 0 0 0 -0 -0 0 -0 -0 -0 -0 -0 -0 -0 -0 -0 0 0 -0 0 0 0 0 0 0 0
0 0 0 -0 -0 -0 -0 -0 -0 -0 -0 0 -0 -0 -0 -0 -0 -0 -0 0 0 0 0 0 0 0 0 0 0 0 0 -0 0 0 0 0 0 0 0 0 0 0 0
0 0 0 0 -0 -0 -0 -0 -0 -0 -0 -0 -0 -0 -0 -0 -0 -0 -0 -0 0 0 0 0 0 0 0 0 0 0 0 0 0 0 0 0 0 0 0 0 0 0 0
0 0 0 0 0 -0 -0 -0 -0 -0 -0 -0 -0 -0 -0 -0 -0 -0 -0 -0 -0 0 0 0 0 0 0 0 0 0 0 0 0 0 0 0 0 0 0 0 0 0 0
0 0 0 0 0 0 0 0 0 0 -0 -0 -0 -0 0 0 0 -0 -0 -0 -0 -0 -0 0 0 0 0 0 0 0 0 0 0 -0 0 0 0 0 0 0 0 0 -0
0 0 0 0 0 0 0 0 0 0 0 0 0 -0 0 0 0 0 0 -0 -0 -0 0 0 0 0 0 0 0 0 0 0 0 0 0 0 0 0 0 0 -0 -0 -0
0 0 0 0 0 0 0 0 0 0 0 0 0 0 0 0 0 0 0 0 -0 -0 0 0 0 0 0 0 0 0 0 0 0 0 0 0 0 0 0 0 -0 -0 -0
0 0 0 0 0 0 0 0 0 0 0 0 0 0 0 0 0 0 0 0 0 0 0 0 0 0 0 0 0 0 0 0 0 0 0 0 0 0 0 -0 -0 -0 -0
0 0 0 0 0 0 0 0 0 0 0 0 0 0 0 0 0 0 0 0 0 0 0 0 0 0 0 0 0 0 0 0 0 0 0 0 0 0 0 -0 -0 -0 -0
0 0 0 0 0 0 0 0 0 0 0 0 0 0 0 0 0 0 0 0 0 0 0 0 0 0 0 0 0 0 0 0 0 0 0 0 0 0 0 -0 -0 -0 -0
0 0 0 0 0 0 0 0 0 0 0 0 0 0 0 0 0 0 0 0 0 0 0 0 0 0 0 0 0 0 0 0 0 0 0 0 0 0 0 -0 -0 -0 -0
0 0 0 0 0 0 0 0 0 0 0 0 0 0 0 0 0 0 0 0 0 0 0 0 0 0 0 0 0 0 0 0 0 0 0 0 0 0 0 -0 -0 -0 -0
0 0 0 0 0 0 0 0 0 0 0 0 0 0 0 0 0 0 0 0 0 0 0 0 0 0 0 0 0 0 0 0 0 0 0 0 0 0 0 -0 -0 -0 -0
0 0 0 0 0 0 0 0 0 0 0 0 0 0 0 0 0 0 0 0 0 0 0 0 0 0 0 0 0 0 0 0 0 0 0 0 0 0 0 0 0 0 0
0 0 0 0 0 0 0 0 0 0 0 0 0 0 0 0 0 0 0 0 0 0 0 0 0 0 0 0 0 0 0 0 0 0 0 0 0 0 0 0 0 0 0
0 0 0 0 0 0 0 0 0 0 0 0 0 0 0 0 0 0 0 0 0 0 0 0 0 0 0 0 0 0 0 0 0 0 0 0 0 0 0 0 0 0 0
0 0 0 0 0 0 0 0 0 0 0 0 0 0 0 0 0 0 0 0 0 0 0 0 0 0 0 0 0 0 0 0 0 0 0 0 0 0 0 0 0 0 0
0 0 0 0 0 0 0 0 0 0 0 0 0 0 0 0 0 0 0 0 0 0 0 0 0 0 0 0 0 0 0 0 0 0 0 0 0 0 0 0 0 0 0
0 0 0 0 0 0 0 0 0 0 0 0 0 0 0 0 0 0 0 0 0 0 0 0 0 0 0 0 0 0 0 0 0 0 0 0 0 0 0 0 0 0 0
0 0 0 0 0 0 0 0 0 0 0 0 0 0 0 0 0 0 0 0 0 0 0 0 0 0 0 0 0 0 0 0 0 0 0 0 0 0 0 0 0 0 0
0 0 0 0 0 0 0 0 0 0 0 0 0 0 0 0 0 0 0 0 0 0 0 0 0 0 0 0 0 0 0 0 0 0 0 0 0 0 0 0 0 0 0
0 0 0 0 0 0 0 0 0 0 0 0 0 0 0 0 0 0 0 0 0 0 0 0 0 0 0 0 0 0 0 0 0 0 0 0 0 0 0 0 0 0 0
Wind_Speed_500mb
42 43 42 37 33 32 31 32 31 32 38 42 39 42 36 36 36 41 42 38 27 25 21 30 34 34 30 24 20 17 18 21 24 26 24 24 25 27 28 26 29 32 33
46 45 43 37 33 33 34 31 32 35 39 38 37 36 32 29 25 23 25 25 19 15 18 27 33 29 28 25 26 23 24 25 23 25 28 20 22 22 24 24 22 27 26
43 50 44 38 35 37 38 34 34 38 36 34 33 33 28 25 22 19 17 17 15 15 20 24 29 27 23 21 21 22 29 31 22 14 22 21 22 22 21 22 22 24 22
44 53 46 38 36 40 40 36 36 41 37 36 29 27 23 20 17 16 17 20 21 25 24 25 25 25 20 18 19 26 29 32 26 19 15 18 19 21 20 19 18 15 16
51 51 45 39 38 39 40 37 39 42 37 34 25 23 18 14 11 13 20 24 28 25 25 28 26 24 24 23 22 22 22 19 20 19 14 12 19 19 19 18 16 15 13
55 52 46 41 40 40 39 38 44 43 37 31 26 18 12 10 11 14 17 29 27 25 23 25 24 23 21 21 22 23 19 17 14 13 9 9 14 17 16 16 15 13 11
52 49 45 44 43 41 40 43 45 41 35 28 19 14 12 12 14 16 16 23 27 23 22 22 22 21 20 19 18 15 12 9 10 7 8 8 11 13 13 13 12 11 11
42 48 45 46 44 42 42 43 42 37 29 19 16 16 14 18 21 15 16 14 21 21 19 20 18 16 15 14 13 11 8 4 5 7 7 8 9 11 11 11 10 9 8
36 41 45 48 44 40 40 41 39 32 24 22 18 16 19 24 22 18 12 9 8 13 15 15 14 12 11 9 8 6 5 1 3 4 7 8 9 11 13 13 12 11 11
39 38 44 48 46 42 40 39 38 33 29 25 20 13 26 25 28 24 21 15 9 18 19 16 14 12 10 8 6 3 1 3 5 5 7 8 10 13 14 15 16 15 12
37 38 45 50 46 43 41 41 38 34 31 27 25 22 13 13 19 24 26 24 17 17 10 10 11 10 8 6 5 4 4 7 8 10 12 13 12 14 16 16 16 17 18
39 34 52 51 47 45 44 43 40 37 33 29 25 23 16 9 5 20 21 25 20 13 10 7 8 9 8 8 8 8 6 9 10 12 14 14 13 16 17 18 19 20 20
33 30 46 48 46 44 44 45 43 39 34 31 27 24 21 17 12 17 19 17 18 16 14 11 8 8 9 10 11 10 11 13 14 16 18 18 17 20 21 22 23 23 23
39 37 30 30 47 42 37 42 42 39 35 33 30 28 27 24 18 17 16 16 16 19 18 17 14 9 12 14 14 18 20 21 21 20 22 23 23 23 23 24 26 26 27
48 42 39 39 38 42 42 36 38 36 34 33 33 31 30 31 27 23 21 22 18 16 19 16 16 15 15 16 19 20 20 21 23 23 24 24 24 24 24 26 27 28 28
55 57 49 46 43 45 43 44 37 35 28 29 32 30 31 34 33 30 27 24 21 18 15 15 16 17 18 18 18 19 21 22 24 26 28 28 27 26 25 25 27 27 28
54 60 65 60 53 48 45 44 38 37 32 29 30 27 29 34 34 31 27 26 22 20 18 19 19 20 22 22 25 27 23 23 29 28 26 27 26 26 27 27 27 27 29
40 52 60 64 59 57 51 48 45 43 39 35 34 34 34 30 33 28 26 28 24 21 22 23 25 24 23 23 23 24 27 29 31 33 33 31 28 24 25 27 29 30 29
46 41 48 50 62 61 58 54 50 48 46 42 37 39 38 36 36 36 33 31 29 29 28 27 25 24 26 26 27 28 31 32 30 30 26 25 25 25 26 27 28 22 19
48 46 42 47 51 63 61 59 56 52 50 46 45 43 40 41 40 41 40 38 37 35 33 33 31 29 28 27 26 30 31 26 30 24 19 17 19 22 26 19 23 23 25
50 52 49 47 46 50 66 61 62 64 58 54 51 47 45 44 42 45 45 43 39 34 32 31 29 28 29 21 26 29 28 32 22 22 9 13 19 15 19 21 25 23 27
52 48 50 50 45 45 46 72 62 58 59 54 50 49 49 48 45 45 43 45 39 36 33 33 32 27 24 17 25 27 20 27 2 13 16 23 25 19 19 28 25 29 28
40 47 47 47 50 49 46 51 68 52 52 53 55 52 50 48 46 41 37 37 41 41 41 37 32 30 29 24 25 24 13 7 22 31 27 31 24 23 25 28 27 32 30
43 48 46 46 51 51 47 40 60 67 65 65 60 54 49 47 48 48 44 44 47 44 42 40 37 35 37 36 33 36 38 41 43 27 30 28 25 30 27 23 22 28 28
42 49 52 52 51 52 51 48 44 57 67 57 54 51 50 52 54 54 51 50 48 46 43 41 42 40 38 37 35 33 35 38 38 41 41 36 31 21 21 27 20 28 34
41 45 51 57 51 45 47 51 52 47 47 52 49 51 50 50 52 55 58 56 54 50 48 47 46 46 46 43 40 38 34 33 34 35 42 40 42 38 29 27 33 36 36
Wind_Direction_500mb
172 175 166 164 162 157 152 145 136 130 131 131 125 131 128 125 114 105 117 115 116 112 118 123 121 108 113 122 125 109 92 79 71 65 64 71 77 78 78 86 80 75 86
161 175 169 163 162 158 152 150 140 136 133 138 136 134 134 128 123 122 126 126 126 125 111 133 145 131 124 121 105 96 92 78 69 63 64 66 78 78 80 85 85 77 83
166 171 167 162 162 159 153 152 144 140 137 141 135 145 144 142 139 142 147 158 145 126 109 123 146 148 137 124 111 102 99 84 73 55 55 64 75 74 74 77 84 83 74
169 168 164 161 162 159 156 155 149 146 145 146 143 148 151 153 155 150 145 146 133 113 112 113 135 140 142 134 120 117 112 101 89 70 40 52 64 70 67 68 73 76 72
169 166 162 161 161 160 156 154 151 150 145 151 154 157 159 160 159 150 142 140 124 126 115 118 124 122 119 118 117 124 127 131 127 103 68 51 57 61 62 63 63 61 58
170 164 162 160 157 155 155 153 148 152 157 160 162 167 167 160 150 141 144 129 130 125 123 122 119 119 121 118 116 119 119 116 106 114 113 65 52 50 55 57 57 55 51
168 165 163 161 155 155 154 151 151 153 159 168 180 178 167 156 142 141 147 137 136 137 131 128 125 123 122 121 119 120 115 104 102 75 81 45 36 35 40 43 43 42 39
167 167 167 163 161 157 156 157 157 158 160 168 179 180 162 146 127 128 122 129 145 145 132 138 136 134 130 125 121 122 125 101 61 50 35 31 27 14 14 14 16 16 17
166 171 172 168 167 161 161 163 163 161 159 151 155 164 154 142 146 149 133 131 173 160 152 154 154 151 146 141 133 128 126 141 16 19 346 2 357 354 350 349 351 342 343
174 181 179 174 172 170 166 169 170 167 162 161 156 158 165 158 163 161 153 172 203 165 175 175 177 177 173 168 165 157 181 269 295 307 318 334 338 338 333 331 333 336 340
184 186 189 180 178 178 176 175 178 178 174 172 169 171 199 178 184 183 182 176 199 188 174 203 202 197 195 200 213 224 267 278 289 308 314 321 323 324 322 320 322 321 324
180 190 188 186 185 185 186 185 186 188 188 188 184 191 211 203 209 195 192 211 220 234 256 263 228 206 218 234 247 261 292 295 301 308 299 310 313 315 317 316 316 315 314
186 191 188 190 189 191 193 194 195 196 199 201 201 202 212 223 229 203 192 200 221 241 246 246 228 221 240 250 265 281 288 290 303 294 298 306 312 310 311 311 308 306 305
190 183 184 190 192 194 200 204 201 201 205 210 212 213 217 227 226 227 231 233 241 239 236 240 245 243 251 260 281 284 284 286 291 293 292 297 301 303 304 304 304 303 302
184 193 190 196 196 199 196 202 206 205 211 217 221 220 218 220 225 234 242 239 237 235 230 241 247 255 271 280 277 274 275 284 292 295 294 294 294 298 301 301 303 303 303
188 191 194 199 198 202 206 201 207 212 215 220 222 225 222 218 225 236 239 237 234 241 238 241 254 257 264 273 277 280 286 296 300 300 298 296 298 299 303 301 303 303 302
196 200 198 199 203 208 205 210 209 211 216 228 223 221 225 221 225 230 235 234 242 247 250 252 254 258 266 276 280 283 283 291 293 291 299 300 299 301 301 301 301 301 302
217 204 205 211 209 208 213 212 207 215 220 223 225 222 221 233 226 232 232 233 235 242 248 251 252 260 261 265 267 275 279 270 277 290 293 294 291 292 298 300 305 309 304
219 226 213 210 215 213 210 212 213 215 223 226 227 228 226 226 224 226 226 226 226 228 231 234 242 248 254 261 270 281 294 295 315 309 302 294 292 296 300 307 313 316 307
218 225 228 224 216 221 217 213 216 218 218 223 226 229 232 231 231 234 234 233 234 235 235 240 243 246 256 264 279 287 291 310 315 311 304 303 307 303 300 303 309 306 307
215 213 225 225 221 214 217 209 211 216 219 222 226 231 231 233 231 232 233 233 232 236 238 240 244 247 256 274 277 291 293 303 304 293 321 355 352 325 320 335 321 315 317
210 216 223 229 236 234 234 218 213 216 221 226 229 229 231 233 233 234 234 228 227 231 234 239 241 249 258 261 277 293 308 316 358 350 330 329 328 320 337 341 343 335 327
187 201 222 233 235 241 246 234 216 219 225 226 228 229 230 232 232 241 234 230 226 232 233 238 244 248 264 271 266 265 289 278 298 304 293 306 316 303 314 317 322 325 324
208 202 211 227 234 238 243 250 221 216 219 222 224 230 231 228 229 234 237 233 231 235 236 239 246 249 254 267 265 259 263 272 282 295 293 289 292 302 297 294 304 298 295
205 206 206 219 230 226 236 242 242 225 227 236 228 225 226 226 229 231 231 230 232 238 241 239 237 245 250 260 264 268 264 264 273 275 293 298 300 289 289 301 295 275 287
206 212 212 213 222 226 225 226 231 230 238 235 231 231 229 230 233 232 229 231 234 237 238 239 239 242 247 253 257 265 268 271 278 273 286 287 298 295 293 292 295 291 290
Wind_Speed_850mb
42 43 42 37 33 32 31 32 31 32 38 42 39 42 36 36 36 41 42 38 27 25 21 30 34 34 30 24 20 17 18 21 24 26 24 24 25 27 28 26 29 32 33
46 45 43 37 33 33 34 31 32 35 39 38 37 36 32 29 25 23 25 25 19 15 18 27 33 29 28 25 26 23 24 25 23 25 28 20 22 22 24 24 22 27 26
43 50 44 38 35 37 38 34 34 38 36 34 33 33 28 25 22 19 17 17 15 15 20 24 29 27 23 21 21 22 29 31 22 14 22 21 22 22 21 22 22 24 22
44 53 46 38 36 40 40 36 36 41 37 36 29 27 23 20 17 16 17 20 21 25 24 25 25 25 20 18 19 26 29 32 26 19 15 18 19 21 20 19 18 15 16
51 51 45 39 38 39 40 37 39 42 37 34 25 23 18 14 11 13 20 24 28 25 25 28 26 24 24 23 22 22 22 19 20 19 14 12 19 19 19 18 16 15 13
55 52 46 41 40 40 39 38 44 43 37 31 26 18 12 10 11 14 17 29 27 25 23 25 24 23 21 21 22 23 19 17 14 13 9 9 14 17 16 16 15 13 11
52 49 45 44 43 41 40 43 45 41 35 28 19 14 12 12 14 16 16 23 27 23 22 22 22 21 20 19 18 15 12 9 10 7 8 8 11 13 13 13 12 11 11
42 48 45 46 44 42 42 43 42 37 29 19 16 16 14 18 21 15 16 14 21 21 19 20 18 16 15 14 13 11 8 4 5 7 7 8 9 11 11 11 10 9 8
36 41 45 48 44 40 40 41 39 32 24 22 18 16 19 24 22 18 12 9 8 13 15 15 14 12 11 9 8 6 5 1 3 4 7 8 9 11 13 13 12 11 11
39 38 44 48 46 42 40 39 38 33 29 25 20 13 26 25 28 24 21 15 9 18 19 16 14 12 10 8 6 3 1 3 5 5 7 8 10 13 14 15 16 15 12
37 38 45 50 46 43 41 41 38 34 31 27 25 22 13 13 19 24 26 24 17 17 10 10 11 10 8 6 5 4 4 7 8 10 12 13 12 14 16 16 16 17 18
39 34 52 51 47 45 44 43 40 37 33 29 25 23 16 9 5 20 21 25 20 13 10 7 8 9 8 8 8 8 6 9 10 12 14 14 13 16 17 18 19 20 20
33 30 46 48 46 44 44 45 43 39 34 31 27 24 21 17 12 17 19 17 18 16 14 11 8 8 9 10 11 10 11 13 14 16 18 18 17 20 21 22 23 23 23
39 37 30 30 47 42 37 42 42 39 35 33 30 28 27 24 18 17 16 16 16 19 18 17 14 9 12 14 14 18 20 21 21 20 22 23 23 23 23 24 26 26 27
48 42 39 39 38 42 42 36 38 36 34 33 33 31 30 31 27 23 21 22 18 16 19 16 16 15 15 16 19 20 20 21 23 23 24 24 24 24 24 26 27 28 28
55 57 49 46 43 45 43 44 37 35 28 29 32 30 31 34 33 30 27 24 21 18 15 15 16 17 18 18 18 19 21 22 24 26 28 28 27 26 25 25 27 27 28
54 60 65 60 53 48 45 44 38 37 32 29 30 27 29 34 34 31 27 26 22 20 18 19 19 20 22 22 25 27 23 23 29 28 26 27 26 26 27 27 27 27 29
40 52 60 64 59 57 51 48 45 43 39 35 34 34 34 30 33 28 26 28 24 21 22 23 25 24 23 23 23 24 27 29 31 33 33 31 28 24 25 27 29 30 29
46 41 48 50 62 61 58 54 50 48 46 42 37 39 38 36 36 36 33 31 29 29 28 27 25 24 26 26 27 28 31 32 30 30 26 25 25 25 26 27 28 22 19
48 46 42 47 51 63 61 59 56 52 50 46 45 43 40 41 40 41 40 38 37 35 33 33 31 29 28 27 26 30 31 26 30 24 19 17 19 22 26 19 23 23 25
50 52 49 47 46 50 66 61 62 64 58 54 51 47 45 44 42 45 45 43 39 34 32 31 29 28 29 21 26 29 28 32 22 22 9 13 19 15 19 21 25 23 27
52 48 50 50 45 45 46 72 62 58 59 54 50 49 49 48 45 45 43 45 39 36 33 33 32 27 24 17 25 27 20 27 2 13 16 23 25 19 19 28 25 29 28
40 47 47 47 50 49 46 51 68 52 52 53 55 52 50 48 46 41 37 37 41 41 41 37 32 30 29 24 25 24 13 7 22 31 27 31 24 23 25 28 27 32 30
43 48 46 46 51 51 47 40 60 67 65 65 60 54 49 47 48 48 44 44 47 44 42 40 37 35 37 36 33 36 38 41 43 27 30 28 25 30 27 23 22 28 28
42 49 52 52 51 52 51 48 44 57 67 57 54 51 50 52 54 54 51 50 48 46 43 41 42 40 38 37 35 33 35 38 38 41 41 36 31 21 21 27 20 28 34
41 45 51 57 51 45 47 51 52 47 47 52 49 51 50 50 52 55 58 56 54 50 48 47 46 46 46 43 40 38 34 33 34 35 42 40 42 38 29 27 33 36 36
Wind_Direction_850mb
172 175 166 164 162 157 152 145 136 130 131 131 125 131 128 125 114 105 117 115 116 112 118 123 121 108 113 122 125 109 92 79 71 65 64 71 77 78 78 86 80 75 86
161 175 169 163 162 158 152 150 140 136 133 138 136 134 134 128 123 122 126 126 126 125 111 133 145 131 124 121 105 96 92 78 69 63 64 66 78 78 80 85 85 77 83
166 171 167 162 162 159 153 152 144 140 137 141 135 145 144 142 139 142 147 158 145 126 109 123 146 148 137 124 111 102 99 84 73 55 55 64 75 74 74 77 84 83 74
169 168 164 161 162 159 156 155 149 146 145 146 143 148 151 153 155 150 145 146 133 113 112 113 135 140 142 134 120 117 112 101 89 70 40 52 64 70 67 68 73 76 72
169 166 162 161 161 160 156 154 151 150 145 151 154 157 159 160 159 150 142 140 124 126 115 118 124 122 119 118 117 124 127 131 127 103 68 51 57 61 62 63 63 61 58
170 164 162 160 157 155 155 153 148 152 157 160 162 167 167 160 150 141 144 129 130 125 123 122 119 119 121 118 116 119 119 116 106 114 113 65 52 50 55 57 57 55 51
168 165 163 161 155 155 154 151 151 153 159 168 180 178 167 156 142 141 147 137 136 137 131 128 125 123 122 121 119 120 115 104 102 75 81 45 36 35 40 43 43 42 39
167 167 167 163 161 157 156 157 157 158 160 168 179 180 162 146 127 128 122 129 145 145 132 138 136 134 130 125 121 122 125 101 61 50 35 31 27 14 14 14 16 16 17
166 171 172 168 167 161 161 163 163 161 159 151 155 164 154 142 146 149 133 131 173 160 152 154 154 151 146 141 133 128 126 141 16 19 346 2 357 354 350 349 351 342 343
174 181 179 174 172 170 166 169 170 167 162 161 156 158 165 158 163 161 153 172 203 165 175 175 177 177 173 168 165 157 181 269 295 307 318 334 338 338 333 331 333 336 340
184 186 189 180 178 178 176 175 178 178 174 172 169 171 199 178 184 183 182 176 199 188 174 203 202 197 195 200 213 224 267 278 289 308 314 321 323 324 322 320 322 321 324
180 190 188 186 185 185 186 185 186 188 188 188 184 191 211 203 209 195 192 211 220 234 256 263 228 206 218 234 247 261 292 295 301 308 299 310 313 315 317 316 316 315 314
186 191 188 190 189 191 193 194 195 196 199 201 201 202 212 223 229 203 192 200 221 241 246 246 228 221 240 250 265 281 288 290 303 294 298 306 312 310 311 311 308 306 305
190 183 184 190 192 194 200 204 201 201 205 210 212 213 217 227 226 227 231 233 241 239 236 240 245 243 251 260 281 284 284 286 291 293 292 297 301 303 304 304 304 303 302
184 193 190 196 196 199 196 202 206 205 211 217 221 220 218 220 225 234 242 239 237 235 230 241 247 255 271 280 277 274 275 284 292 295 294 294 294 298 301 301 303 303 303
188 191 194 199 198 202 206 201 207 212 215 220 222 225 222 218 225 236 239 237 234 241 238 241 254 257 264 273 277 280 286 296 300 300 298 296 298 299 303 301 303 303 302
196 200 198 199 203 208 205 210 209 211 216 228 223 221 225 221 225 230 235 234 242 247 250 252 254 258 266 276 280 283 283 291 293 291 299 300 299 301 301 301 301 301 302
217 204 205 211 209 208 213 212 207 215 220 223 225 222 221 233 226 232 232 233 235 242 248 251 252 260 261 265 267 275 279 270 277 290 293 294 291 292 298 300 305 309 304
219 226 213 210 215 213 210 212 213 215 223 226 227 228 226 226 224 226 226 226 226 228 231 234 242 248 254 261 270 281 294 295 315 309 302 294 292 296 300 307 313 316 307
218 225 228 224 216 221 217 213 216 218 218 223 226 229 232 231 231 234 234 233 234 235 235 240 243 246 256 264 279 287 291 310 315 311 304 303 307 303 300 303 309 306 307
215 213 225 225 221 214 217 209 211 216 219 222 226 231 231 233 231 232 233 233 232 236 238 240 244 247 256 274 277 291 293 303 304 293 321 355 352 325 320 335 321 315 317
210 216 223 229 236 234 234 218 213 216 221 226 229 229 231 233 233 234 234 228 227 231 234 239 241 249 258 261 277 293 308 316 358 350 330 329 328 320 337 341 343 335 327
187 201 222 233 235 241 246 234 216 219 225 226 228 229 230 232 232 241 234 230 226 232 233 238 244 248 264 271 266 265 289 278 298 304 293 306 316 303 314 317 322 325 324
208 202 211 227 234 238 243 250 221 216 219 222 224 230 231 228 229 234 237 233 231 235 236 239 246 249 254 267 265 259 263 272 282 295 293 289 292 302 297 294 304 298 295
205 206 206 219 230 226 236 242 242 225 227 236 228 225 226 226 229 231 231 230 232 238 241 239 237 245 250 260 264 268 264 264 273 275 293 298 300 289 289 301 295 275 287
206 212 212 213 222 226 225 226 231 230 238 235 231 231 229 230 233 232 229 231 234 237 238 239 239 242 247 253 257 265 268 271 278 273 286 287 298 295 293 292 295 291 290